Tracking 28052 objects as of 23-Sep-2023
HD Live streaming from Space Station
objects crossing your sky now

EKRAN 2 DEB

Track EKRAN 2 DEB now!


NORAD ID: 29014
Int'l Code: 1977-092K
Perigee: 35,757.5 km
Apogee: 35,903.0 km
Inclination: 6.7 °
Period: 1,438.0 minutes
Semi major axis: 42201 km
RCS: 1 m2 (large)
Launch date: September 20, 1977
Source: Commonwealth of Independent States (former USSR) (CIS)
Launch site: TYURATAM MISSILE AND SPACE COMPLEX (TTMTR)

Note: This is SATELLITE DEBRIS
Your satellite tracking list
Your tracking list is empty




NASA's NSSDC Master Catalog

Two Line Element Set (TLE):
1 29014U 77092K   23265.96525580 -.00000268  00000-0  00000+0 0  9995
2 29014   6.6945 287.4981 0017246 310.6041  72.0459  1.00141671 74573
Source of the keplerian elements: AFSPC